Location: Doverdale
(52.2833°N, 2.2000°W)
Time: 11:52:47
(UTC+00:00)

Cosmos 1980 Rocket - Pass Details

Date: 29 October 2020
Orbit: 831 x 848 km, 71.0° (Epoch: 24 November)

Event Time Altitude Azimuth Distance (km) Brightness Sun altitude
Rises 17:32:47 0° 143° (SE) 3,379 5.1 -7.9°
Reaches altitude 10° 17:37:17 10° 110° (ESE) 2,448 4.1 -8.6°
Maximum altitude 17:38:45 11° 94° (E) 2,375 3.9 -8.8°
Enters shadow 17:39:31 11° 86° (E) 2,395 3.9 -8.9°
